Temp
17 16 16 16 17 17 17 18 19 19 19 20 21 21 21 21 21 22 23 23 22 24 24 23 23 21 20 19 19 18 17 18 20 20 20 19 19 17 17 18 18 18 17 17 17 17 17 18 18 18 17 17 17 17 17 17 17 17 17 17 17 17 17 17 17 17 18 18 18 18 18 18 18 18 18 18 18 18 18 18 18 18 18 18 18 18
16 16 15 17 18 18 18 18 20 19 19 20 20 21 20 20 21 22 22 22 23 24 23 22 22 21 20 20 19 19 19 20 21 20 18 17 17 17 17 18 18 18 17 17 17 17 18 18 18 18 18 18 17 17 17 17 17 17 17 17 17 17 17 17 17 17 17 17 17 17 17 17 17 17 17 17 17 17 18 18 18 18 18 18 18 18
15 15 16 17 18 18 18 18 19 20 20 20 19 20 20 20 21 22 22 22 23 24 23 21 22 21 19 20 20 19 19 19 19 18 16 16 16 16 17 18 18 18 17 18 17 17 17 17 17 17 17 17 17 17 17 17 17 17 17 17 17 17 17 17 17 17 17 17 17 17 17 17 17 17 17 17 17 17 18 17 18 18 18 18 18 18
14 15 17 17 18 18 17 18 19 19 19 19 19 19 20 19 20 21 22 22 22 22 22 21 21 20 19 20 19 18 18 17 16 16 16 16 16 16 17 18 18 18 18 18 18 17 17 17 17 17 17 17 17 17 17 17 17 17 17 17 17 17 17 17 17 17 17 17 17 17 17 17 17 17 17 17 17 17 17 17 17 17 18 18 17 17
15 16 17 18 18 19 18 17 18 18 18 18 18 19 20 20 20 21 21 22 21 20 21 21 21 20 19 19 19 17 17 16 16 17 17 17 17 16 17 18 18 18 18 18 18 17 17 17 17 16 17 17 17 17 17 17 17 17 17 17 17 17 17 17 17 17 17 17 17 17 17 17 17 17 18 18 17 17 17 17 17 17 17 17 17 17
16 17 17 18 18 18 18 17 17 18 18 18 18 19 20 21 21 21 21 22 21 20 21 21 21 20 19 19 19 17 17 16 17 18 18 17 17 16 16 18 18 18 18 18 18 17 17 16 16 16 16 16 16 17 17 17 17 17 17 17 17 17 17 17 17 17 17 17 17 17 17 17 17 17 17 17 17 17 17 17 17 17 17 17 17 17
17 17 17 18 18 18 18 17 17 18 18 18 19 19 21 21 21 21 21 21 21 21 21 21 21 20 19 19 19 18 17 16 17 18 18 17 17 16 16 17 18 18 18 17 17 17 16 16 15 15 15 15 15 16 16 16 16 17 17 17 17 17 17 17 17 17 17 17 17 17 17 17 17 16 16 16 16 16 16 16 16 17 17 16 16 16
17 17 17 18 18 17 17 17 17 18 18 18 19 20 20 21 21 21 21 21 21 21 21 21 21 21 19 19 19 18 17 17 17 17 17 17 16 16 17 18 18 18 17 17 17 16 16 15 15 15 15 15 15 15 16 16 16 16 17 17 17 17 17 17 17 17 17 17 17 17 17 17 16 16 16 16 16 16 16 16 16 16 16 16 15 15
17 17 16 17 17 17 17 18 18 18 19 19 19 19 20 20 21 21 21 21 20 20 21 20 20 20 20 19 18 18 18 17 17 17 17 17 16 16 17 18 18 17 17 17 16 16 15 15 15 14 15 15 15 15 16 16 16 16 16 17 17 16 16 16 17 17 17 17 16 16 16 16 16 16 16 15 15 16 16 16 16 16 16 15 15 14
17 17 17 17 17 17 18 19 18 19 21 20 18 19 20 20 21 21 21 21 20 20 20 20 20 20 20 18 18 19 18 17 17 17 17 17 16 17 17 17 18 17 16 16 15 15 15 14 14 14 15 15 15 16 16 16 16 16 16 16 16 16 16 16 16 16 16 16 16 16 16 16 15 15 15 15 15 15 15 15 15 15 14 14 14 14
17 18 18 18 17 18 19 19 19 21 21 19 19 20 19 19 20 20 20 20 20 20 20 20 20 20 20 19 19 19 19 18 17 17 17 17 17 17 17 17 16 16 16 15 15 14 14 14 14 14 15 15 15 16 16 16 16 16 16 16 16 15 15 15 15 15 15 15 15 15 15 15 15 15 15 15 14 14 14 14 14 14 14 13 13 13
17 17 17 18 19 19 19 18 19 21 21 19 20 21 19 19 20 19 19 20 19 19 20 19 20 20 20 19 19 19 19 19 18 18 17 17 17 17 17 16 15 15 15 15 14 14 14 14 14 14 14 14 15 15 16 16 16 15 15 15 15 14 15 15 14 14 14 14 14 14 14 14 14 14 14 14 13 13 14 13 13 13 13 13 13 13
17 17 17 18 19 19 19 18 18 19 20 20 20 20 19 19 19 18 19 18 19 19 18 18 20 20 20 20 19 19 19 19 19 18 17 17 17 17 16 15 15 15 15 14 14 14 14 14 14 13 13 14 14 15 15 15 15 15 15 15 14 14 14 14 13 13 13 13 13 13 13 13 13 13 13 13 12 12 13 13 13 12 12 12 13 13
16 16 17 18 18 19 20 18 17 18 18 19 20 19 19 18 18 17 18 18 18 19 18 18 20 20 20 19 18 18 19 19 19 18 18 18 17 16 16 15 15 15 15 14 14 14 14 14 14 13 13 14 14 14 15 15 15 14 14 14 14 13 13 13 13 13 13 12 12 12 12 12 12 12 12 12 12 12 12 12 12 12 12 12 12 13
14 15 16 17 18 19 19 18 18 18 18 19 19 19 19 19 18 18 18 18 19 19 18 18 20 19 19 18 16 17 19 18 18 18 18 17 16 16 16 15 15 14 14 14 14 14 14 14 14 13 13 13 14 14 14 14 14 14 13 13 13 13 12 13 12 12 12 12 12 12 12 12 11 11 11 11 11 11 11 11 11 11 11 11 11 12
15 15 16 17 18 19 19 19 20 19 18 19 19 19 19 19 20 18 18 18 19 19 19 18 18 17 17 17 16 17 17 16 16 16 16 16 15 15 15 15 14 14 14 14 14 14 14 14 14 13 13 13 13 13 13 14 14 13 13 13 13 13 12 12 12 12 12 12 12 11 11 11 11 11 10 10 10 10 10 10 10 10 10 11 11 11
15 15 17 17 18 19 19 20 20 20 19 18 18 19 19 20 21 19 17 17 18 20 19 17 17 16 17 18 17 16 16 16 16 16 15 15 15 15 15 14 14 14 14 14 14 14 13 13 13 13 13 13 13 14 14 14 14 13 13 13 12 12 12 12 12 12 11 11 11 11 10 10 10 10 10 9 9 9 9 9 9 10 10 10 10 10
15 16 17 18 18 19 19 20 20 21 20 19 18 19 20 21 21 20 19 18 18 20 19 15 16 17 18 19 18 17 16 16 15 15 15 15 15 15 14 14 14 13 14 14 13 13 13 13 13 13 13 13 13 14 14 14 14 13 13 13 12 12 12 12 11 11 11 11 10 10 9 9 9 9 9 9 9 9 9 9 9 9 10 10 10 10
16 16 17 18 18 19 19 20 19 20 20 20 20 21 21 20 20 20 19 19 18 19 18 16 15 16 18 18 17 17 16 16 15 15 15 15 15 15 14 13 13 13 13 13 13 13 13 13 13 13 13 13 13 13 13 13 13 13 12 12 12 11 11 11 11 11 10 10 9 9 9 8 8 8 8 8 8 8 9 9 9 9 10 10 10 10
16 16 16 17 19 19 19 19 18 18 19 20 21 21 21 20 20 19 18 19 19 18 18 18 16 15 18 18 17 17 16 16 16 15 15 15 15 14 14 13 13 13 13 13 13 13 13 13 13 13 12 13 13 13 13 13 12 12 12 12 12 11 11 11 10 10 9 9 9 8 8 8 8 8 8 8 8 8 8 8 9 9 9 9 10 10
16 16 16 17 17 18 18 18 18 18 18 19 20 19 20 20 20 20 18 18 19 18 18 19 18 17 17 18 18 17 16 16 16 16 15 15 14 14 13 13 13 13 13 13 13 13 13 13 12 12 12 12 12 12 12 12 12 12 12 11 11 11 10 10 10 9 9 8 8 8 8 7 7 7 8 8 8 8 8 8 8 8 9 9 9 9
17 16 16 16 16 17 18 19 19 19 19 19 19 19 19 19 19 19 18 17 17 18 18 18 20 19 17 17 18 17 16 16 16 16 15 14 14 13 13 13 13 13 13 13 13 13 12 12 12 12 12 11 12 11 11 11 11 11 11 11 11 10 10 9 9 9 9 8 8 8 7 7 7 7 7 8 8 8 8 8 8 8 9 9 8 8
17 17 16 17 16 17 18 19 19 20 20 20 20 20 19 19 20 19 19 18 17 17 17 17 19 19 16 16 17 17 16 16 16 16 15 14 14 13 13 13 13 13 13 12 12 13 12 12 11 11 11 11 11 11 11 11 10 10 10 10 10 10 9 9 9 9 8 8 8 7 7 7 7 7 7 7 7 7 7 7 7 8 8 8 8 8
17 17 16 17 17 17 18 18 18 20 20 19 20 20 20 20 20 20 19 19 18 18 18 18 19 19 16 15 17 16 16 16 15 15 14 13 13 13 13 13 13 12 12 12 12 12 12 12 11 11 11 11 10 10 10 10 10 10 10 10 10 9 9 9 9 8 8 8 8 7 7 7 7 7 7 7 7 7 7 7 7 7 7 7 8 7
17 16 16 16 17 17 17 18 18 18 19 19 19 19 20 20 20 19 18 19 19 19 19 20 20 18 15 15 16 16 15 15 14 14 14 13 13 13 13 13 12 12 12 12 12 12 12 12 11 11 11 10 10 10 10 10 10 10 9 10 9 9 9 9 9 8 8 8 8 7 7 7 7 6 6 6 6 6 6 6 6 6 7 7 7 7
17 16 16 16 16 16 16 17 17 17 18 19 20 19 20 20 20 20 19 19 20 18 18 20 20 17 15 15 15 15 15 14 14 13 13 13 13 13 12 12 12 12 12 12 12 12 12 11 11 11 10 10 10 10 9 9 9 9 9 9 9 9 9 9 8 8 8 8 7 7 7 7 6 6 6 6 6 5 6 6 6 6 6 6 6 6
17 16 17 17 17 17 17 17 16 17 18 19 19 19 19 20 20 20 20 20 19 18 18 19 18 16 16 16 15 15 15 14 13 13 13 13 13 13 12 12 12 12 12 12 12 12 11 11 11 10 10 10 9 9 9 9 9 9 9 9 9 9 9 8 8 8 8 8 7 7 7 6 6 6 6 5 5 5 5 5 5 5 5 5 5 5
17 16 16 17 18 18 18 17 15 16 18 19 19 20 19 19 19 19 20 20 19 18 19 17 15 16 16 16 15 15 14 14 13 13 13 13 12 12 12 12 12 12 12 12 11 11 10 10 10 10 10 9 9 9 9 9 9 9 9 9 9 9 8 8 8 8 8 8 7 7 7 6 6 6 6 5 5 5 5 5 5 5 5 5 5 5
18 17 15 16 18 17 16 16 15 16 17 17 18 19 19 19 19 19 20 20 19 20 21 18 15 16 16 15 15 15 14 14 13 13 13 12 12 12 12 12 12 11 12 11 11 10 10 10 9 9 9 9 9 9 8 8 9 9 9 8 8 8 8 8 8 8 8 7 7 7 7 6 6 6 6 6 5 5 5 5 5 5 5 5 5 5
18 17 15 16 18 17 15 15 15 16 16 15 16 17 18 18 19 19 20 19 19 20 20 17 15 16 16 15 15 15 14 14 13 13 13 12 12 12 12 12 12 11 11 11 10 10 10 9 9 9 9 9 8 8 8 8 8 8 8 8 8 8 8 8 8 8 8 7 7 7 7 6 6 6 6 6 5 5 5 5 5 5 5 5 4 4
18 16 15 16 18 17 16 16 15 15 15 15 15 15 16 17 18 19 19 17 18 19 17 15 15 15 15 15 14 14 13 13 12 12 12 12 12 12 12 12 11 11 11 11 10 10 9 9 9 8 8 8 8 8 8 8 8 8 8 8 8 8 8 8 8 7 7 7 7 7 7 6 6 6 6 6 5 5 5 5 5 5 5 5 4 4
18 16 14 16 18 17 15 15 15 14 14 15 15 14 14 16 17 18 17 17 18 18 15 14 15 15 14 14 13 13 13 12 12 12 12 12 12 12 12 11 11 11 11 10 10 9 9 8 8 8 8 8 8 8 8 8 8 8 8 8 8 8 8 8 7 7 7 6 6 6 6 6 6 6 6 5 5 5 5 5 5 5 5 5 4 4
17 17 16 17 18 16 13 14 16 16 16 16 15 13 12 13 15 16 16 16 17 16 15 16 17 15 14 13 13 13 13 12 12 12 12 12 12 12 12 11 11 11 10 10 9 9 9 9 8 8 8 8 8 8 8 8 8 8 7 7 7 7 8 7 7 7 6 6 6 6 6 6 6 5 5 5 5 5 5 5 5 5 5 5 5 5
16 17 17 17 17 15 13 16 16 16 16 16 13 11 11 12 13 15 15 15 14 15 15 16 16 14 13 13 13 13 13 13 12 12 12 12 12 12 11 11 11 11 10 9 9 9 9 8 8 8 8 8 8 8 8 8 8 8 7 7 7 7 7 7 7 6 6 6 6 6 5 6 5 5 5 5 5 5 5 5 5 5 5 5 5 5
16 17 16 15 16 15 14 16 16 15 15 14 12 12 12 11 12 13 13 12 12 13 14 15 14 13 13 14 13 13 13 13 12 12 12 12 12 11 11 11 10 10 9 9 9 8 8 8 7 7 7 8 8 8 8 8 8 8 7 7 7 7 7 7 6 6 6 6 5 5 5 5 5 5 5 5 5 5 5 5 5 5 5 4 4 4
16 17 15 14 14 15 15 15 15 14 14 13 12 13 12 11 12 14 13 12 12 12 13 14 13 13 13 13 13 12 12 12 12 12 12 12 11 11 11 10 9 9 9 9 8 8 8 7 7 7 7 7 8 8 8 8 8 8 7 7 7 7 7 6 6 6 6 5 5 5 5 5 5 5 5 5 5 5 5 5 5 5 5 4 4 4
15 16 16 14 13 14 14 14 14 14 14 14 13 13 12 12 13 15 15 14 12 12 13 13 13 13 12 12 11 11 11 11 11 11 11 11 11 11 10 10 9 9 9 8 8 8 8 8 8 7 7 7 7 7 7 8 8 8 7 7 7 7 6 6 6 6 6 5 5 5 5 5 5 5 5 5 5 4 4 4 4 4 4 4 4 4
15 16 18 16 13 12 14 14 13 14 15 16 15 14 13 13 13 14 16 14 12 12 13 13 12 12 11 11 11 11 11 11 11 10 10 10 10 10 9 9 9 9 8 8 8 7 7 8 8 7 7 7 7 7 7 7 8 8 7 7 7 7 6 6 6 6 6 6 5 5 5 5 5 5 4 4 4 4 4 4 4 4 4 4 4 4
15 16 17 16 13 13 14 14 14 14 16 17 16 14 13 13 13 14 17 16 13 12 13 13 12 11 11 11 11 12 12 12 11 10 10 9 9 9 9 8 8 8 8 8 7 7 7 8 8 7 7 7 7 7 7 8 8 7 7 7 7 6 6 6 6 6 6 6 5 5 5 5 5 4 4 4 4 4 4 4 4 4 4 4 4 4
15 16 16 15 14 13 14 14 14 15 16 16 14 13 13 13 13 15 19 18 14 12 13 13 11 11 11 11 12 13 13 13 12 10 9 9 9 9 8 8 8 7 7 7 7 7 7 8 7 7 7 7 7 7 8 8 8 7 7 7 7 6 6 6 6 6 6 6 5 5 5 5 5 4 4 4 4 4 4 4 4 4 4 4 4 4
14 15 14 14 14 13 13 14 14 15 15 14 13 13 13 13 14 17 19 17 13 12 13 12 12 12 12 12 13 13 12 11 11 10 9 9 9 8 8 8 7 7 7 7 7 7 7 7 7 7 7 7 7 7 8 8 7 7 7 7 7 6 6 6 6 6 6 6 6 5 5 5 5 5 4 4 4 4 4 4 4 4 4 4 4 3
14 14 14 14 14 12 12 14 15 15 15 13 12 12 12 14 17 17 15 13 11 12 13 12 12 12 12 12 12 10 9 9 9 9 9 9 8 8 8 8 7 7 7 7 7 7 7 7 7 7 7 7 7 8 8 8 7 7 7 7 7 6 6 6 6 6 6 6 6 5 5 5 5 5 5 4 4 4 4 4 4 4 4 4 3 3
15 15 15 14 13 12 12 14 16 16 14 12 12 13 13 15 17 15 11 10 12 13 12 12 12 12 12 11 9 9 8 9 9 9 9 9 8 8 8 8 7 7 7 7 7 7 7 7 7 7 7 7 7 8 8 8 7 7 7 7 7 6 6 6 6 6 6 6 6 5 5 5 5 5 5 5 4 4 4 4 4 4 4 4 3 3
14 15 15 14 13 14 15 16 15 14 12 11 12 14 14 13 13 12 11 11 12 12 12 12 12 12 11 10 8 9 9 8 8 9 8 8 8 8 8 7 7 7 7 7 7 7 8 7 7 7 7 7 8 8 8 8 8 7 7 7 7 7 6 6 6 6 6 6 6 5 5 5 5 5 5 5 5 5 4 4 4 4 4 4 4 3
13 13 14 14 13 13 14 14 12 10 9 9 10 11 11 10 10 11 12 12 12 12 12 12 12 11 10 9 9 9 9 8 8 8 8 8 8 8 7 7 7 7 7 7 7 7 7 7 7 7 7 7 8 8 8 8 8 7 7 7 7 7 7 6 6 6 6 6 6 6 6 5 5 5 5 5 5 5 5 5 4 4 4 4 4 3
12 11 12 13 11 10 11 10 9 9 9 8 8 8 9 9 10 11 12 12 12 12 12 11 11 10 9 9 9 9 9 9 9 8 8 8 8 8 7 7 7 7 7 7 7 7 7 7 7 7 7 7 8 8 8 8 8 8 7 7 7 7 7 7 7 6 6 6 6 6 6 6 5 5 5 5 5 5 5 5 5 4 4 4 4 3
11 11 11 12 11 12 13 10 8 9 8 8 8 9 9 10 11 11 11 11 11 11 11 10 10 9 9 10 9 9 9 9 9 8 8 8 8 8 7 7 7 7 7 7 7 7 7 6 6 6 6 7 7 8 8 8 8 8 8 7 7 7 7 7 7 6 6 6 6 6 6 6 6 6 5 5 5 5 5 5 5 5 4 4 4 3
12 12 12 11 10 12 12 9 7 8 8 7 8 9 9 10 10 10 11 11 10 10 10 10 9 9 10 10 9 9 9 9 9 9 8 8 8 8 8 8 8 8 7 7 7 7 7 7 6 7 7 7 7 8 8 8 8 8 8 7 7 7 7 7 7 7 6 6 6 6 6 6 6 6 6 6 6 5 5 5 5 5 4 4 4 4
12 13 12 10 9 10 10 9 8 10 10 8 8 8 8 9 9 10 10 9 9 9 9 9 10 10 10 9 9 9 9 9 9 9 8 8 8 8 8 8 8 8 7 7 7 7 7 7 7 7 7 7 8 8 8 8 8 8 8 8 8 7 7 7 7 7 7 6 6 6 6 6 6 6 6 6 6 6 6 5 5 5 5 4 4 4
12 12 11 11 12 13 12 11 10 11 12 10 8 8 8 8 9 9 9 9 9 9 9 9 9 9 9 9 9 9 9 9 9 9 9 8 8 8 8 8 8 8 7 7 8 8 7 7 7 7 7 8 8 8 9 9 8 8 8 8 8 8 8 7 7 7 7 7 7 7 6 6 6 6 6 6 6 6 6 6 5 5 5 5 4 4
11 11 11 13 14 14 12 11 10 11 11 9 7 7 8 8 8 9 8 9 9 9 9 9 9 9 9 9 9 9 9 9 9 9 9 8 8 8 8 8 8 8 7 8 8 8 7 8 8 8 8 8 8 8 9 9 8 8 8 8 8 8 8 8 7 7 7 7 7 7 7 7 7 7 6 6 6 6 6 6 6 6 5 5 5 5
Height
752 759 761 756 754 757 759 760 760 761 762 762 765 767 767 767 767 764 758 755 754 755 758 761 763 767 771 771 771 772 774 774 771 771 773 774 775 778 782 783 783 784 786 788 791 793 793 795 797 798 799 800 802 804 805 806 807 808 810 811 812 814 815 817 818 820 820 820 821 822 822 823 823 824 824 824 824 824 825 825 825 824 824 824 824 824
753 757 755 750 751 753 757 759 758 761 763 763 765 767 769 771 766 761 760 757 754 755 761 764 765 769 770 768 770 771 774 773 769 772 778 781 781 781 785 785 782 784 787 788 791 793 794 796 797 799 800 801 803 804 806 807 808 809 811 812 813 814 816 818 819 820 820 821 822 822 823 823 823 824 823 823 824 824 824 824 824 824 823 823 823 823
756 753 749 749 749 751 756 758 758 761 763 766 769 770 772 775 769 763 760 758 755 755 762 766 767 772 773 770 771 772 773 774 774 777 783 788 791 790 787 784 782 785 787 789 791 793 794 796 798 799 801 802 804 805 807 808 809 811 812 813 814 815 817 818 819 820 820 821 822 822 823 823 823 823 823 823 823 824 824 824 823 823 823 822 823 823
757 751 747 748 747 751 758 760 759 763 766 768 772 774 775 776 772 766 763 761 760 761 764 767 771 775 776 773 774 777 778 781 783 784 785 788 794 795 789 783 783 786 788 790 792 793 795 797 799 800 801 803 805 806 808 809 810 812 812 814 814 816 817 818 819 819 820 820 821 822 822 823 823 824 824 824 824 824 824 824 823 823 822 822 822 822
751 746 744 746 747 750 758 762 762 765 771 772 772 775 774 773 770 768 768 764 764 768 766 767 775 780 779 777 778 780 781 783 783 784 786 787 788 793 793 787 786 787 788 790 792 793 795 797 799 801 802 804 805 807 808 809 811 812 813 814 815 816 817 818 819 819 820 820 821 822 822 822 823 823 824 823 824 824 824 824 823 823 823 822 822 822
748 744 742 745 748 750 756 762 762 764 772 775 772 770 768 768 767 768 769 766 769 774 766 765 777 782 781 779 779 781 784 786 784 782 786 787 786 793 798 793 790 790 790 791 793 795 796 798 800 802 804 805 806 808 809 810 812 813 814 815 816 817 818 818 819 820 820 821 821 822 822 822 823 823 823 824 824 824 824 824 824 824 823 822 822 821
745 743 741 744 748 751 755 761 761 760 770 775 768 764 764 765 767 768 768 769 774 775 766 766 775 782 784 781 778 781 786 789 787 783 785 788 789 794 799 797 793 793 793 793 795 796 798 799 801 803 805 806 807 809 810 811 813 814 815 816 817 818 819 819 820 820 820 821 821 822 822 823 823 824 824 825 825 825 825 825 824 824 823 823 822 821
740 743 745 744 747 753 756 759 759 757 766 771 763 761 764 766 768 768 769 772 774 772 767 767 771 777 783 780 776 781 787 790 791 789 787 789 791 793 796 796 794 794 794 795 797 798 799 800 802 804 805 807 809 810 811 812 814 815 816 817 818 819 819 820 821 821 821 821 822 822 822 823 824 824 825 825 825 825 825 825 824 824 823 823 822 822
737 742 746 745 748 753 753 753 754 755 760 762 759 760 762 764 767 766 769 772 773 776 774 769 772 778 783 781 777 780 786 790 792 791 789 789 790 791 794 796 794 794 795 797 800 800 801 802 803 805 806 808 810 810 811 813 814 815 817 817 818 819 820 821 821 821 822 822 823 823 823 824 824 825 825 825 825 825 825 824 824 823 823 823 822 822
737 738 740 744 749 751 749 748 750 752 754 755 758 761 761 764 765 766 771 771 775 783 778 770 772 778 783 783 779 780 785 789 790 789 788 789 788 788 791 795 793 793 795 798 801 802 802 802 804 805 806 808 810 811 812 813 815 816 817 818 819 820 821 821 822 822 822 823 823 824 824 824 825 825 825 825 825 825 824 824 824 823 823 823 822 821
736 735 736 740 744 744 744 746 748 746 749 753 757 761 766 770 769 772 775 773 782 786 773 767 771 775 780 779 776 776 776 780 785 787 787 788 787 785 788 793 795 794 794 798 801 802 803 803 804 806 807 809 810 811 813 813 815 816 818 819 819 821 822 821 822 822 822 823 823 824 824 824 825 825 825 825 825 825 824 824 824 823 823 822 822 821
737 738 739 737 736 738 741 747 748 743 746 752 754 758 770 777 775 780 782 781 789 784 771 769 769 773 780 776 772 769 767 771 776 778 782 784 784 785 788 792 797 798 795 797 802 802 802 804 805 807 808 810 811 812 813 814 816 818 818 820 820 821 822 822 823 823 823 824 824 824 824 825 825 825 825 825 825 824 824 824 824 823 823 822 821 820
740 740 740 736 733 734 740 750 753 749 748 751 753 759 773 783 785 791 790 788 788 780 776 776 769 772 775 768 767 766 763 766 766 768 773 778 780 784 789 790 795 800 796 796 802 802 803 804 805 808 809 810 812 812 814 816 817 819 819 820 820 821 823 823 823 823 823 824 824 825 825 825 825 825 825 824 824 824 823 823 823 822 822 821 820 820
747 743 740 738 737 732 735 748 756 755 752 752 755 759 771 782 790 796 793 789 784 776 777 776 768 771 770 765 767 764 759 759 760 766 770 774 779 782 787 790 793 800 797 797 803 802 803 805 805 808 809 810 812 814 815 817 818 819 821 821 821 822 824 824 824 824 824 825 825 825 825 825 825 824 824 823 823 823 822 822 822 822 822 821 820 820
752 750 741 740 739 732 732 741 745 749 752 751 751 754 763 769 776 786 787 784 783 779 779 776 771 773 771 768 770 764 760 762 764 770 773 777 782 784 789 792 795 799 796 797 804 804 804 805 806 809 810 810 813 815 816 818 819 820 821 822 822 823 824 824 825 825 825 826 826 826 826 825 825 825 824 824 823 822 822 822 822 821 821 821 821 820
748 749 739 734 734 730 734 736 734 743 753 752 750 755 761 757 759 775 781 778 778 777 778 778 778 779 773 768 768 764 765 770 771 774 778 783 786 789 794 796 797 799 797 798 804 806 806 805 807 810 810 811 813 815 817 819 820 821 822 823 822 823 825 825 825 826 826 826 826 827 827 827 827 826 825 824 823 822 822 822 821 821 821 821 821 821
747 748 737 733 733 730 732 733 730 738 749 753 754 754 751 745 749 768 781 781 777 772 776 783 782 780 776 769 767 768 771 774 776 778 780 784 787 790 795 800 801 800 799 800 802 805 807 806 809 811 810 811 814 816 818 819 821 821 822 823 823 824 825 825 825 826 826 827 828 828 828 828 828 827 826 824 823 823 822 822 822 821 821 820 820 820
743 745 737 733 736 732 727 729 729 730 735 747 753 747 742 745 749 757 771 781 779 772 777 788 786 778 776 772 768 770 775 778 780 781 783 785 787 788 792 800 803 801 801 803 802 804 808 808 809 812 812 813 815 817 818 819 821 822 823 823 824 824 825 825 826 827 828 828 829 830 830 830 829 827 826 825 824 823 823 823 822 821 820 820 820 820
737 743 739 732 732 732 727 731 736 732 728 734 740 736 741 755 760 759 768 777 780 780 779 784 790 783 774 771 769 770 776 780 780 782 783 784 787 789 792 797 802 803 806 806 805 807 810 810 810 812 814 814 816 818 819 820 822 822 824 824 824 825 826 826 827 828 830 830 830 831 831 830 829 828 827 826 825 825 824 823 823 821 820 820 820 819
733 739 741 733 727 729 730 735 740 738 733 731 734 736 739 748 753 758 767 769 772 784 783 778 786 784 767 763 767 768 771 776 777 779 781 783 787 791 794 797 799 803 806 806 806 810 812 812 813 814 815 816 817 819 820 821 823 824 825 826 826 827 827 828 830 831 832 832 832 832 831 831 830 829 828 827 826 826 824 824 823 822 821 820 820 820
731 736 740 736 731 731 733 733 732 736 739 737 740 744 742 743 745 752 763 765 765 777 782 775 774 772 761 755 760 765 767 768 769 772 777 781 785 790 793 797 799 802 805 805 806 811 813 813 814 815 816 818 819 820 821 822 824 825 827 827 827 828 829 830 831 833 833 833 833 833 833 832 831 830 830 828 828 826 825 825 824 823 823 822 821 820
729 735 738 738 736 733 728 724 723 728 733 735 738 741 741 743 749 756 766 770 768 770 775 773 765 761 761 756 755 761 764 764 766 768 774 779 784 789 793 795 798 800 803 805 807 810 812 813 815 816 818 819 820 821 823 824 825 827 828 829 829 830 830 832 833 835 835 834 834 835 834 834 832 832 831 829 829 828 827 826 826 826 825 824 823 822
724 730 735 735 734 732 725 721 721 722 724 729 731 733 739 742 744 753 761 765 769 770 771 774 765 759 762 759 753 758 762 764 768 771 776 782 784 789 793 795 797 799 803 806 807 809 811 813 816 818 820 820 821 823 825 826 827 828 830 830 831 831 832 834 835 836 836 836 836 836 836 835 834 833 832 831 831 830 830 829 829 828 827 826 825 823
721 728 733 733 730 728 725 723 722 720 724 731 730 728 734 737 735 741 747 752 762 767 767 770 767 760 761 759 755 759 763 766 771 774 779 785 787 790 793 795 797 800 804 806 807 808 812 815 818 819 821 822 823 826 827 827 829 830 831 832 832 833 835 836 837 838 838 838 838 837 837 836 836 835 835 835 834 834 833 832 831 830 829 828 827 825
722 728 732 735 736 734 733 731 729 727 727 728 729 728 728 730 734 740 746 749 753 757 758 757 760 762 763 761 759 762 766 770 775 778 781 784 788 791 793 795 798 800 802 804 806 810 814 817 819 820 822 823 825 827 828 829 830 831 833 834 834 836 837 838 839 839 839 839 839 839 839 839 838 838 838 838 837 836 836 834 833 832 831 830 828 827
720 727 729 734 740 741 740 738 734 732 730 725 725 727 727 729 734 738 746 751 750 755 756 748 752 765 767 763 763 765 768 773 777 780 782 784 787 790 792 795 797 799 802 805 807 811 815 817 819 821 823 824 826 828 829 830 831 833 834 835 836 838 839 840 841 841 841 841 841 841 841 841 841 841 841 841 840 839 837 836 835 834 832 831 830 828
718 724 724 726 730 731 730 731 731 729 727 726 724 725 727 728 730 734 743 747 747 756 759 750 753 765 766 762 763 765 767 772 777 780 782 784 786 789 792 795 797 800 804 807 809 812 814 817 819 822 823 825 827 829 830 831 832 834 835 837 838 840 841 842 842 842 842 842 843 843 843 843 843 843 843 843 842 840 839 837 836 835 834 833 831 830
715 722 724 722 721 722 722 726 732 729 724 723 722 722 725 726 730 736 738 739 744 752 755 755 759 762 760 759 760 762 765 769 773 776 779 783 786 788 792 796 799 802 806 809 812 813 815 817 819 822 824 826 829 830 831 832 834 835 837 838 840 841 842 843 843 843 844 844 844 845 845 845 846 846 845 845 843 842 840 839 838 837 836 835 833 832
710 718 725 723 719 721 726 730 731 729 728 728 723 720 722 725 730 733 732 733 737 737 738 748 758 756 753 755 755 756 760 764 768 774 777 782 786 789 794 797 800 804 807 811 814 815 817 819 820 823 826 828 830 831 833 834 835 837 838 840 841 842 843 844 844 844 845 845 846 846 846 847 847 847 847 846 844 843 842 841 840 839 838 836 835 834
707 716 724 722 719 722 728 731 730 728 730 732 729 725 723 724 726 725 727 732 733 729 731 742 753 753 750 751 754 757 761 765 771 776 779 783 787 790 794 798 801 804 808 812 816 817 819 821 822 825 828 829 831 833 834 836 837 839 840 841 842 843 844 845 845 845 846 846 847 847 848 848 848 848 847 846 846 845 844 843 842 841 839 838 837 836
706 719 725 720 719 723 724 726 730 732 732 733 734 734 729 726 726 724 727 734 735 735 740 746 753 756 752 753 758 761 764 769 774 778 781 784 787 789 794 799 801 804 809 813 816 818 821 823 824 826 829 831 832 834 836 837 839 840 842 843 844 844 845 846 846 847 848 848 848 848 848 849 848 848 848 848 847 847 846 845 844 842 841 840 839 838
705 718 724 719 718 724 728 730 732 734 735 733 734 738 736 732 730 728 730 732 730 735 749 754 755 755 753 754 761 764 766 771 774 778 782 784 786 788 792 797 801 805 810 814 816 819 822 824 825 827 830 832 834 836 838 839 840 842 843 844 846 846 846 847 847 848 849 849 849 849 849 849 849 849 850 849 849 848 848 847 845 844 842 841 840 839
705 711 718 717 718 730 738 734 729 730 732 732 734 741 744 740 736 731 730 731 728 732 744 746 741 744 749 752 759 764 766 770 772 775 778 782 787 789 791 795 801 805 809 813 815 819 822 823 825 827 830 833 836 838 840 841 842 844 846 846 847 847 847 848 849 850 850 850 850 850 850 850 850 851 851 850 850 850 849 848 846 845 844 843 842 841
707 707 714 716 718 735 741 728 727 736 735 735 741 746 746 745 741 735 732 734 733 733 734 732 732 740 748 749 751 756 759 763 767 772 776 780 785 790 793 796 800 804 809 813 816 820 822 825 828 830 831 834 837 841 842 843 845 846 848 849 849 849 849 849 851 852 852 852 851 851 851 851 852 852 852 852 851 851 850 849 847 847 846 845 844 843
709 709 718 721 722 734 737 727 734 744 737 737 744 743 743 747 745 740 740 741 740 738 734 732 736 742 747 749 752 756 760 764 769 774 778 781 784 789 795 798 801 805 809 813 816 819 822 825 829 831 833 835 839 842 844 845 847 848 849 850 850 850 850 852 853 853 853 853 853 852 853 853 853 853 853 853 852 851 851 850 849 848 848 847 846 845
708 708 718 728 730 732 735 735 740 741 735 737 741 739 741 745 741 737 739 742 744 741 736 736 740 744 748 753 759 763 766 771 775 779 782 783 785 788 792 795 800 804 808 811 814 817 821 824 827 831 833 836 839 843 845 846 848 850 851 852 851 851 853 854 855 854 854 854 854 854 854 854 854 854 854 854 853 853 852 851 851 850 850 849 848 847
708 707 711 726 736 736 738 743 742 738 735 735 736 736 736 737 734 730 732 739 744 742 738 738 741 746 752 758 763 766 770 776 783 787 786 785 787 789 791 794 798 802 807 811 814 818 822 825 829 832 835 838 841 843 846 849 850 851 852 853 853 854 855 856 856 855 855 855 855 856 856 856 856 856 856 855 855 854 853 853 852 852 852 851 850 849
709 706 702 715 736 742 741 743 746 745 738 728 726 728 729 731 732 727 727 737 743 741 738 738 741 747 753 759 765 768 771 778 786 788 787 787 789 792 795 798 800 803 808 812 816 820 824 827 830 833 835 839 843 846 848 850 851 852 853 853 855 856 857 857 857 857 857 857 858 858 859 859 858 858 858 857 856 856 855 854 854 854 854 853 852 851
711 708 703 714 734 740 738 741 745 742 730 719 718 724 728 730 731 728 726 730 737 740 738 738 743 748 751 755 760 763 767 775 781 784 785 788 790 793 796 800 804 807 810 813 816 820 824 827 830 833 836 840 844 848 849 851 852 852 853 855 856 857 857 858 858 858 859 860 860 861 861 861 860 860 859 859 858 857 857 857 856 856 856 855 854 853
712 710 710 719 730 736 739 743 743 734 724 720 722 726 728 728 730 731 725 721 728 736 736 736 741 745 748 752 753 753 757 761 766 775 783 787 791 794 796 799 804 809 812 816 818 820 824 827 830 834 837 840 844 847 849 851 852 853 854 856 858 858 859 859 860 861 862 862 863 863 863 863 863 862 861 861 860 859 859 859 859 858 858 856 855 854
717 716 719 723 727 736 741 742 740 732 723 722 726 726 728 730 731 728 719 713 722 731 732 734 739 741 745 748 748 752 757 757 761 772 781 786 791 797 798 800 804 808 812 816 820 822 825 828 831 834 838 841 844 847 849 851 853 854 856 857 858 859 860 861 862 863 863 864 865 865 865 865 865 864 864 863 862 862 861 861 861 860 859 858 856 854
717 719 724 725 728 740 745 740 735 729 721 723 728 728 728 727 724 720 716 717 722 726 728 735 738 740 745 748 751 758 764 765 769 777 783 787 792 797 801 803 807 811 815 818 821 824 827 830 833 836 839 842 844 847 849 851 853 855 856 858 859 860 861 862 863 864 865 866 866 866 867 867 866 866 866 865 864 864 863 863 862 861 860 858 857 855
712 712 720 726 730 740 745 737 728 722 720 722 726 726 726 722 716 716 721 724 723 724 729 736 738 740 745 751 758 762 764 768 775 780 784 788 792 796 801 804 807 812 816 819 822 825 827 831 834 837 839 842 844 847 850 852 853 855 857 858 860 861 862 864 865 866 867 867 868 868 868 868 868 868 867 867 867 866 865 864 864 862 861 859 857 856
711 710 716 722 724 726 727 724 721 721 725 726 723 721 721 720 718 720 722 723 724 727 731 735 738 742 746 751 758 761 764 770 777 781 785 790 793 797 802 805 808 812 816 819 823 825 827 830 834 837 840 843 845 848 850 852 853 856 857 859 861 862 863 865 866 867 868 868 869 869 869 870 870 869 869 869 868 868 867 866 864 863 862 860 859 858
711 713 713 715 721 724 721 721 724 729 732 732 728 725 723 722 723 722 720 722 726 728 730 733 738 744 748 751 756 760 764 771 777 781 786 790 794 799 803 806 809 813 817 820 823 826 828 831 834 837 840 843 846 848 851 852 853 856 858 859 861 863 864 866 867 868 869 869 870 870 871 871 871 870 870 870 870 869 868 866 865 864 863 862 861 860
716 719 715 714 724 730 728 729 732 732 732 732 730 728 726 724 723 722 721 724 727 728 731 735 739 744 748 750 754 760 765 770 777 782 786 790 795 800 803 807 811 814 817 821 824 827 829 831 834 837 840 844 847 849 851 853 854 856 858 860 862 864 865 866 867 869 870 870 871 871 872 872 872 871 871 871 870 869 868 867 867 866 865 864 863 862
717 717 717 720 724 721 720 729 735 733 733 734 730 728 727 724 723 723 724 726 729 731 735 739 742 746 750 751 754 761 767 771 776 783 788 791 796 800 803 808 812 814 817 821 824 827 830 832 835 838 841 844 847 849 852 854 856 857 859 861 863 864 866 867 868 869 870 871 872 872 872 872 872 872 872 871 871 870 869 869 868 868 867 866 865 863
715 713 717 724 728 724 723 732 738 734 734 735 731 728 728 725 725 726 726 729 732 735 739 743 745 748 751 753 756 762 768 773 776 781 788 793 796 800 804 807 811 815 818 821 824 827 830 833 836 838 841 844 847 850 852 854 856 858 860 861 863 865 866 868 869 870 871 872 872 873 873 873 873 873 872 872 871 871 870 870 870 869 868 867 866 864
714 712 718 726 730 731 730 733 734 730 729 732 733 732 730 728 727 729 730 732 735 738 742 746 748 749 752 755 758 762 769 775 778 781 787 793 797 801 804 807 811 815 818 822 825 828 830 833 836 839 842 845 847 850 853 855 857 859 860 862 864 865 867 868 869 870 871 872 872 873 873 873 873 873 873 873 872 872 872 871 871 870 869 868 867 866
715 716 722 722 720 719 720 724 728 723 721 728 734 733 732 731 730 731 733 735 737 740 743 748 751 753 755 758 760 763 769 777 780 783 787 792 797 801 804 807 811 815 819 822 826 829 832 834 837 839 842 845 848 850 853 855 857 859 860 862 864 865 867 868 870 871 872 872 873 873 873 874 874 874 874 873 873 873 873 872 872 871 870 869 868 867
717 718 719 713 711 714 717 722 726 725 724 731 735 733 733 733 732 733 736 737 738 741 743 746 751 755 758 761 764 765 769 776 782 785 788 793 797 801 805 809 812 816 820 823 826 829 832 835 837 840 843 845 848 851 853 855 857 858 860 862 864 866 867 869 870 871 871 872 873 873 873 874 874 874 874 874 874 874 874 873 872 871 870 870 869 868
Wind_Speed
5 4 5 8 7 8 7 7 7 4 6 8 6 5 5 4 3 5 4 6 2 3 2 3 7 7 9 10 10 11 9 8 10 11 7 6 10 11 8 7 8 8 8 12 14 11 13 18 16 15 16 15 15 13 12 12 11 10 10 8 7 6 5 4 3 3 3 2 1 2 3 3 5 6 6 6 6 6 6 7 7 7 7 8 8 9
5 8 9 7 7 8 9 9 8 4 5 6 5 5 3 3 4 5 3 6 4 2 3 2 7 7 9 9 9 11 11 11 12 9 5 3 0 5 6 7 9 8 9 13 13 11 14 17 17 17 17 17 16 14 13 12 10 8 7 6 5 5 4 3 3 3 1 0 1 2 3 4 6 7 7 6 6 7 7 7 7 7 7 7 7 8
6 8 7 7 7 8 8 8 9 6 3 4 4 5 2 2 3 5 3 6 4 2 4 1 6 3 4 3 5 7 8 5 2 4 5 1 3 3 5 7 9 9 10 12 11 11 13 15 18 18 17 17 16 15 13 11 10 8 7 7 6 5 4 4 3 1 0 1 1 2 4 5 6 7 7 7 7 7 6 6 6 7 8 8 7 7
6 5 7 8 8 10 7 8 10 7 5 3 3 5 2 2 1 1 3 5 4 2 2 4 5 3 4 1 3 4 4 7 9 10 9 6 3 3 4 6 9 9 10 11 9 10 12 14 15 16 17 18 17 15 14 13 11 10 9 8 7 5 3 3 2 1 1 1 1 2 3 4 5 7 7 6 8 8 7 8 8 8 9 8 8 7
3 3 8 9 8 11 8 7 10 7 4 3 4 5 3 2 3 3 1 3 4 4 3 7 5 5 2 2 3 5 6 7 9 9 8 6 6 2 1 6 8 8 8 9 9 9 11 13 14 16 17 17 18 16 14 14 13 12 11 10 8 7 5 4 2 2 3 3 3 3 4 6 5 6 6 6 9 10 10 10 10 10 10 9 9 8
4 3 9 11 8 9 9 7 9 8 5 2 3 6 7 5 4 2 3 3 5 3 1 4 2 5 3 3 5 3 5 6 7 8 6 4 7 7 2 4 7 7 7 8 9 9 10 13 16 17 17 17 18 18 17 16 16 15 15 14 13 11 9 7 6 5 4 4 5 5 6 7 7 8 9 9 10 10 10 10 9 9 9 10 10 9
3 3 8 12 9 8 8 6 7 9 7 3 5 7 7 6 4 1 3 4 2 2 3 2 4 4 4 3 5 4 6 6 5 7 7 5 8 9 4 4 6 6 6 7 8 8 9 13 16 15 17 20 20 20 22 21 20 19 18 17 16 14 13 10 9 7 6 6 7 7 7 7 7 9 10 9 9 9 9 9 9 10 10 10 10 9
5 5 6 10 10 8 7 5 6 8 8 3 6 10 8 6 5 3 4 3 2 2 4 1 4 3 3 4 6 7 7 8 6 6 7 8 9 11 8 7 7 7 6 7 7 8 10 13 16 16 18 21 20 22 24 23 22 20 18 16 15 15 14 12 10 8 8 8 8 8 8 8 8 9 9 8 7 7 8 9 10 11 11 11 10 10
4 8 6 8 9 7 6 6 7 9 6 5 7 11 8 7 7 4 5 2 1 2 5 4 2 3 4 3 6 9 7 8 9 8 8 11 12 11 9 7 6 7 7 8 7 7 10 14 17 18 19 20 21 23 24 23 21 19 17 16 15 14 13 12 10 8 8 8 8 8 8 8 8 7 7 6 7 7 9 10 11 11 11 11 11 11
2 7 8 8 6 5 6 7 10 10 4 5 8 8 5 6 5 4 5 2 2 2 6 7 3 3 4 2 6 8 7 7 8 9 9 11 13 13 11 9 7 8 8 8 7 8 11 16 19 21 22 21 21 23 23 21 20 18 17 15 14 14 12 11 10 8 8 7 6 6 7 7 6 5 5 6 7 8 9 10 10 11 11 12 13 13
1 2 5 6 5 5 7 8 9 10 6 6 7 6 5 4 3 3 2 2 2 4 8 5 6 4 3 3 6 6 7 10 9 8 9 9 13 14 11 7 4 6 9 10 8 9 13 17 20 22 22 22 22 23 21 20 18 16 15 14 15 14 11 10 9 8 8 7 6 6 6 6 5 5 5 6 7 8 9 10 10 10 11 12 13 13
2 2 3 3 6 6 6 6 7 8 8 7 6 5 5 2 4 4 4 2 3 7 6 2 6 6 3 5 5 5 9 14 14 13 13 13 14 12 9 8 4 2 8 11 7 9 13 14 17 19 21 22 22 22 21 19 17 16 15 15 16 15 13 11 10 9 10 9 9 8 7 7 7 7 7 7 9 9 9 10 10 11 11 12 12 13
2 1 2 1 6 8 7 5 4 5 7 6 5 7 6 2 2 2 1 1 5 5 3 2 5 4 5 5 6 8 12 16 16 15 16 16 14 11 10 12 8 4 8 11 8 8 10 10 14 17 19 20 21 21 21 19 17 17 16 16 18 18 15 14 13 13 13 12 11 10 9 9 8 8 8 9 10 10 10 10 11 12 12 12 14 14
2 3 3 1 2 6 9 7 5 5 7 6 5 7 7 5 5 6 5 2 4 4 2 2 3 2 4 2 3 7 12 15 15 13 13 14 13 13 12 12 9 7 9 10 7 8 8 10 14 15 17 20 20 20 20 19 19 19 19 19 21 20 17 17 16 15 15 14 13 12 11 10 9 10 10 10 10 10 10 10 10 12 12 13 14 15
5 4 4 4 2 5 8 7 6 7 7 6 4 5 5 5 6 6 5 3 3 2 3 1 2 2 2 2 7 4 6 8 9 8 9 10 10 10 9 10 9 7 9 11 6 6 8 12 15 15 17 20 19 19 20 20 21 21 21 20 21 20 18 17 17 17 17 16 15 13 12 12 11 11 11 11 12 11 11 11 10 11 12 13 13 14
7 4 4 5 4 6 8 6 6 8 7 4 3 5 4 5 5 3 3 4 4 2 1 2 3 2 2 3 4 3 8 9 10 10 10 9 8 8 5 5 9 6 7 11 8 6 8 13 16 14 16 20 20 20 21 21 22 22 20 19 20 20 18 18 17 17 17 15 14 14 13 12 11 11 11 12 12 12 12 12 12 12 13 12 13 13
5 3 5 4 5 5 8 8 7 7 6 3 3 5 5 5 7 5 2 1 4 3 2 1 1 0 1 3 1 9 10 10 11 10 11 11 10 10 5 1 5 6 7 9 10 8 7 12 15 14 17 21 21 21 22 21 20 19 19 19 20 20 19 18 17 16 15 14 14 14 13 13 12 12 13 13 12 12 11 12 13 13 13 12 13 13
5 2 4 4 7 7 6 9 9 7 8 6 5 6 4 4 4 4 2 2 3 3 3 1 1 2 2 1 3 11 10 10 11 10 10 12 12 12 9 4 2 5 7 7 10 10 9 12 15 15 18 20 21 21 20 19 17 18 19 19 20 21 20 19 17 16 15 14 15 15 14 14 14 14 14 13 13 13 12 13 13 13 14 14 13 13
4 2 4 4 9 7 3 7 7 6 6 6 6 6 5 3 2 2 3 1 2 3 3 1 2 3 3 3 5 12 12 11 12 12 11 12 12 10 10 10 7 7 6 5 8 8 7 11 15 16 18 20 20 19 18 18 18 20 21 20 21 21 20 18 16 15 15 14 15 15 14 15 15 15 15 14 14 14 15 15 14 14 14 14 13 13
4 3 3 5 7 7 3 5 7 7 4 3 6 5 4 4 4 3 3 3 4 3 2 1 1 3 4 4 7 13 16 16 14 13 12 12 12 10 9 10 10 9 7 7 7 6 6 11 15 17 19 20 20 19 19 21 22 22 22 20 21 20 18 18 16 15 15 15 15 15 15 15 15 15 16 16 16 16 17 17 16 16 15 14 14 13
3 2 3 4 3 6 5 5 7 8 5 4 6 6 5 3 2 2 2 2 4 4 2 2 2 4 3 4 9 13 16 19 18 15 14 13 13 12 11 11 10 9 8 8 8 7 8 13 16 18 20 21 22 22 23 24 24 23 22 21 20 19 18 18 16 16 15 15 15 16 17 16 16 16 16 17 18 19 20 20 19 18 17 15 14 14
2 3 3 1 3 5 4 3 6 8 7 6 5 5 6 4 4 4 3 1 3 3 4 4 3 5 3 2 8 12 13 15 17 16 15 13 14 13 11 12 12 10 9 8 8 8 10 14 17 19 20 22 23 24 24 24 25 24 22 21 20 19 19 18 17 15 15 15 17 17 16 17 17 18 18 19 21 21 22 22 22 20 19 18 17 16
3 3 3 2 4 6 4 1 6 10 9 6 5 5 5 4 5 6 6 3 2 2 2 3 1 4 4 3 5 9 9 9 11 13 12 12 13 14 12 12 11 11 10 9 8 9 12 15 17 18 20 22 23 23 23 24 24 23 22 21 20 19 18 17 15 15 15 17 17 17 17 18 19 20 21 22 22 22 22 22 22 21 21 21 21 19
3 3 3 1 3 3 3 3 2 5 7 5 5 6 6 5 5 6 5 4 4 2 2 2 1 4 4 1 4 8 9 9 9 11 12 11 10 12 13 12 11 11 10 9 9 10 13 16 17 18 19 20 21 21 22 23 23 23 22 21 20 19 17 15 15 15 17 18 17 17 18 19 19 20 20 21 21 21 21 21 20 21 21 22 21 21
3 2 3 2 1 2 2 2 1 0 4 4 5 6 7 7 6 5 3 4 3 5 6 4 3 5 3 1 6 10 11 10 10 10 12 12 10 11 11 10 10 11 11 11 10 10 12 13 15 16 18 19 20 20 21 23 23 22 21 21 20 18 17 16 16 17 18 18 18 18 19 18 18 18 19 19 19 20 20 20 20 21 21 22 22 22
4 4 4 4 5 4 4 6 5 4 3 2 3 7 9 9 8 5 3 4 4 5 6 5 4 3 1 5 9 11 11 11 11 11 11 11 11 11 10 9 9 10 11 12 11 10 10 12 14 16 18 19 20 20 21 22 23 22 21 20 19 18 18 18 17 18 17 17 17 18 19 19 18 18 18 18 19 20 20 21 21 22 22 23 23 24
3 3 4 6 6 6 6 6 4 3 4 3 6 9 11 11 10 7 5 4 6 4 3 5 5 6 7 8 10 12 13 12 12 13 12 11 12 11 10 10 10 10 10 10 10 10 11 12 14 16 18 19 20 20 21 22 22 22 21 21 19 18 18 17 16 16 16 16 16 16 17 18 18 18 18 18 19 20 21 22 22 23 23 23 24 25
4 3 4 7 8 8 6 5 2 2 4 6 8 10 12 12 10 8 6 6 6 7 4 6 6 10 11 10 11 13 14 15 14 14 13 12 12 11 11 11 12 11 10 9 9 11 12 11 12 16 18 19 20 21 21 21 22 22 22 21 19 18 17 16 15 15 15 15 15 15 15 16 16 17 17 18 19 20 21 22 22 23 23 23 25 25
5 3 4 6 7 7 3 4 4 4 3 4 6 10 13 12 12 12 11 8 8 7 5 7 11 12 12 14 16 16 16 15 15 14 13 12 12 12 13 13 13 12 11 10 10 11 11 10 12 16 18 19 21 21 20 21 22 21 21 19 18 17 16 15 15 15 14 15 15 15 13 13 13 14 15 16 18 18 19 20 21 22 23 24 25 25
4 3 4 5 5 4 2 2 3 5 3 0 2 6 10 12 15 15 12 8 9 5 4 12 16 10 6 12 14 12 11 11 11 11 12 14 14 14 14 14 13 13 12 11 11 10 10 11 14 17 18 18 20 20 20 21 21 20 20 18 17 16 14 14 14 14 14 15 16 14 13 12 12 13 14 16 17 17 18 19 21 23 24 25 25 25
3 3 2 4 5 2 2 5 7 5 4 3 3 3 3 9 12 11 8 6 6 2 2 11 11 3 1 8 10 10 11 12 12 13 13 14 15 16 16 14 13 13 12 11 12 11 10 12 15 18 17 17 19 20 20 21 21 20 19 18 17 16 14 14 15 15 16 16 16 14 13 13 13 14 15 16 16 16 17 19 22 24 25 26 27 27
4 3 1 4 5 2 4 8 8 7 5 3 3 4 2 5 7 5 4 5 6 8 9 10 7 4 5 11 12 12 14 14 15 15 14 12 14 16 17 15 14 14 13 12 12 12 11 12 15 18 18 18 20 20 21 22 21 20 19 18 17 16 15 15 16 17 17 17 15 14 14 14 14 15 15 15 15 16 17 19 22 24 26 27 27 28
5 5 2 3 4 1 4 7 7 7 4 0 3 2 1 2 3 2 2 3 6 10 11 7 6 8 11 14 15 14 16 17 16 15 14 13 13 14 15 16 15 14 13 13 12 12 12 14 17 20 21 21 21 20 20 22 22 21 19 18 17 16 17 18 18 18 18 17 16 15 15 15 15 16 16 15 15 15 16 19 22 24 25 26 27 28
6 6 3 2 4 1 2 6 7 5 1 3 4 1 3 4 2 3 2 2 2 4 5 4 7 12 14 16 18 18 18 17 15 13 13 13 13 12 13 15 15 14 13 13 12 12 14 16 18 20 23 24 23 21 21 22 22 20 18 18 18 18 19 20 19 18 18 17 17 16 16 16 16 16 16 15 15 16 17 19 21 23 24 25 26 27
6 6 3 1 4 3 2 5 5 1 4 3 5 3 4 5 4 4 4 4 3 1 4 9 12 15 13 11 13 13 12 13 14 13 13 13 13 14 13 12 13 14 14 13 12 14 17 20 21 22 25 26 24 23 24 24 22 21 20 19 20 21 21 21 20 20 19 19 18 17 17 17 17 17 17 16 16 17 18 19 20 22 23 24 25 26
7 6 3 2 2 3 3 3 2 4 5 3 5 3 2 4 5 6 5 3 4 1 6 11 13 13 12 11 10 10 11 12 11 9 10 12 13 14 15 14 14 14 14 15 16 19 22 25 26 26 26 26 26 25 25 24 23 23 22 22 23 23 23 22 22 21 21 21 20 19 19 18 18 19 18 18 18 19 19 19 20 20 21 22 23 25
5 6 4 3 1 3 3 1 1 3 5 3 2 3 4 5 6 5 3 0 3 2 5 13 14 14 14 14 12 13 14 13 9 4 5 9 11 11 12 14 16 17 18 21 23 25 27 28 29 28 28 27 27 26 25 25 25 25 24 24 25 24 24 24 24 23 23 23 22 21 20 20 20 20 20 20 20 21 20 20 19 19 20 21 23 24
2 3 5 4 1 2 4 1 1 2 3 4 5 7 6 5 5 5 4 1 3 3 6 14 16 16 16 16 16 16 14 11 8 5 5 8 10 10 12 14 19 22 23 25 26 27 28 30 30 31 31 29 27 26 27 26 26 27 26 25 25 25 24 24 24 24 25 24 23 22 22 21 21 22 22 22 22 22 22 21 21 20 20 21 23 24
3 1 4 6 2 2 5 2 2 3 4 6 6 6 5 5 5 4 3 1 4 5 8 14 17 17 18 19 19 18 13 10 9 8 7 10 11 13 14 15 18 22 25 28 31 31 31 32 32 32 32 30 27 27 28 28 28 28 27 25 25 24 24 24 24 24 25 24 23 23 23 23 23 23 23 24 24 23 23 22 21 21 21 22 23 24
4 3 3 5 4 3 5 2 2 3 3 4 4 4 5 4 3 5 1 4 7 11 12 15 18 18 18 19 19 17 13 10 10 10 11 13 14 15 18 19 20 22 24 27 31 34 34 34 33 32 31 30 29 29 29 29 28 27 26 25 25 24 23 23 23 23 23 23 23 23 23 23 23 23 24 25 25 25 24 23 22 22 22 22 23 24
3 3 2 4 4 4 4 3 3 4 4 4 3 4 6 4 4 5 4 6 9 15 14 15 18 18 18 18 15 10 5 5 10 13 14 15 15 14 18 24 26 27 28 29 31 33 33 33 33 32 31 31 31 31 30 30 28 26 25 25 24 23 22 22 22 22 22 22 22 22 22 22 22 22 23 24 24 25 25 24 24 24 24 24 24 25
2 2 2 3 4 3 3 3 2 4 4 3 3 3 5 4 3 4 5 4 11 16 14 14 16 17 16 14 9 6 8 13 16 16 15 16 15 14 17 22 24 25 27 30 31 32 31 30 30 30 30 31 32 32 31 30 28 26 26 25 24 22 21 21 20 20 20 20 20 20 20 21 21 21 21 22 23 24 24 24 24 24 25 25 26 27
4 3 2 3 4 3 2 1 1 3 4 5 7 4 3 4 4 5 1 3 10 14 13 13 14 14 14 11 10 12 15 18 17 16 16 16 16 17 20 23 24 25 26 28 29 31 32 29 28 30 30 30 32 32 31 30 29 27 26 25 24 22 21 19 18 18 18 18 17 17 17 18 18 19 20 20 21 22 23 24 24 25 26 27 28 28
2 3 3 3 3 3 3 3 3 4 4 1 3 3 4 3 4 4 4 6 8 10 11 11 12 12 12 13 14 16 18 18 17 16 16 16 16 17 19 23 25 26 27 28 29 30 32 30 29 29 30 30 31 31 31 30 29 27 26 25 23 22 20 18 17 16 16 15 15 14 14 14 15 16 17 18 18 19 21 22 24 26 26 27 28 28
2 3 4 3 2 3 4 4 4 3 3 3 1 3 4 2 1 3 5 7 8 8 9 10 12 12 13 15 16 16 17 18 17 16 16 16 16 17 18 22 25 27 27 28 29 30 31 32 31 30 29 30 31 31 29 29 28 27 26 24 23 21 20 18 16 15 14 14 13 12 12 12 12 13 14 15 16 17 19 20 22 24 25 25 26 26
1 1 2 2 2 1 1 1 2 2 3 3 3 3 3 1 2 4 6 7 8 7 7 9 11 13 14 16 16 15 16 18 18 16 17 16 16 17 21 23 25 27 28 27 28 29 31 32 32 31 29 29 30 30 28 27 28 27 26 25 23 21 20 18 16 15 13 12 11 11 11 11 11 11 12 13 14 15 17 18 20 21 22 22 23 24
2 1 3 3 3 3 0 2 2 2 3 4 4 3 2 2 3 4 6 6 6 7 8 9 11 13 13 15 16 16 17 19 19 16 15 15 15 17 21 23 24 27 28 28 28 30 31 30 29 29 29 28 29 30 29 27 26 26 26 25 23 21 19 18 16 14 12 11 10 10 10 10 10 10 11 12 13 14 15 16 16 17 18 19 21 22
1 2 3 3 2 2 1 3 3 1 1 3 3 1 1 3 5 5 6 7 8 9 9 10 12 12 12 13 17 18 17 18 19 17 15 14 14 16 20 23 25 26 28 29 30 30 30 29 29 29 29 29 29 29 29 27 25 26 26 25 24 21 19 17 16 14 12 11 9 9 9 9 9 10 10 11 12 13 13 13 14 14 15 16 17 19
0 2 2 2 3 2 2 3 2 1 1 3 4 2 1 2 5 7 8 9 11 12 11 11 11 11 12 14 17 19 18 16 17 18 17 14 13 16 21 25 26 27 27 28 30 30 30 29 30 30 29 29 29 29 28 26 25 25 26 25 23 21 19 17 15 14 12 11 9 8 8 8 8 9 9 10 11 11 11 11 11 12 13 14 15 17
2 3 3 3 3 0 4 4 3 3 2 1 1 0 1 3 7 10 10 11 13 14 14 13 11 10 13 16 17 19 18 15 15 18 17 15 16 20 24 26 27 27 28 29 29 29 30 30 30 31 30 29 29 29 27 26 24 24 25 25 23 20 18 16 15 13 12 11 9 9 8 8 8 8 8 9 9 10 10 10 10 11 11 12 14 15
1 3 4 4 3 3 5 5 5 4 2 1 2 2 2 3 7 10 10 11 13 14 14 15 14 13 14 16 19 20 18 15 18 19 15 15 21 25 25 25 26 26 27 29 29 28 28 29 30 30 30 29 28 28 27 25 23 23 23 23 22 19 17 16 15 13 12 11 10 9 8 8 8 8 8 8 7 8 8 9 9 10 11 11 12 13
Wind_Direction
143 150 200 198 190 174 165 158 158 155 142 143 135 125 153 176 240 260 267 299 320 119 239 151 146 163 158 167 175 178 188 194 190 182 181 176 154 153 154 145 130 116 116 122 129 132 120 129 142 142 143 146 148 154 154 155 166 172 173 175 178 188 201 199 203 234 249 263 313 348 4 21 25 18 16 16 10 4 360 354 347 343 340 336 336 334
153 191 210 190 166 154 151 156 156 137 105 111 124 127 139 175 238 259 253 307 326 124 293 67 123 176 179 174 176 173 182 194 195 180 174 247 179 120 136 138 123 111 117 123 127 128 120 129 138 139 142 145 147 150 148 145 146 149 151 152 150 151 169 184 192 215 228 24 15 21 22 19 18 18 13 10 9 3 357 353 347 345 341 339 337 332
191 208 185 162 152 134 135 152 160 175 153 104 105 114 128 212 257 283 297 317 343 97 276 73 111 213 243 190 164 170 184 177 130 101 115 213 352 64 142 137 121 115 123 129 129 125 118 120 128 133 137 142 143 142 141 135 129 132 138 144 147 151 169 179 177 183 38 9 3 9 16 29 36 37 35 33 30 20 16 16 7 2 355 348 344 336
199 210 161 151 138 123 132 156 153 177 197 158 124 120 167 248 174 258 326 330 355 68 194 124 88 319 319 43 91 82 83 74 56 48 62 82 95 187 182 123 115 123 130 134 128 119 114 115 121 124 125 130 135 137 136 135 132 131 131 136 143 147 152 158 159 123 68 80 69 19 39 63 60 58 66 61 46 38 33 27 17 12 5 355 348 343
217 208 155 142 139 136 139 159 154 163 189 174 160 147 165 225 187 184 308 331 6 30 130 105 57 322 339 154 148 74 70 82 79 67 56 74 91 90 155 114 117 124 130 132 126 119 116 114 112 113 117 119 124 129 130 131 127 119 115 113 116 116 108 107 111 97 88 90 90 86 89 89 72 60 58 42 35 32 25 18 15 12 3 358 353 348
254 234 152 143 154 150 144 164 168 161 155 173 200 179 168 180 213 258 7 25 42 13 248 108 88 286 309 215 193 111 81 85 101 117 123 122 102 82 64 121 123 122 130 128 121 121 115 110 107 110 115 113 112 120 124 124 120 113 110 109 108 107 103 100 98 100 103 94 91 98 92 78 67 64 56 45 38 33 27 21 18 13 2 355 353 350
225 213 155 156 159 151 153 173 183 162 144 194 214 181 161 154 178 243 40 57 100 224 269 115 165 250 302 243 193 127 107 109 132 147 139 127 114 112 134 176 145 133 134 123 116 117 113 111 110 110 114 113 111 116 119 118 116 113 110 106 104 101 100 98 96 99 101 94 87 87 82 72 74 80 74 67 57 46 40 31 25 20 9 360 356 355
176 164 155 160 156 160 170 173 189 160 138 217 207 162 154 143 163 177 91 88 199 245 313 3 148 185 280 235 166 134 125 122 140 164 143 130 128 133 160 182 153 139 132 119 115 116 115 115 115 113 112 113 116 116 117 115 113 112 108 104 101 98 97 94 92 89 85 89 90 89 90 89 89 87 80 68 54 40 28 19 15 10 2 0 1 2
161 169 171 160 158 178 177 154 162 145 137 221 189 158 164 159 165 155 106 115 304 25 307 290 146 170 263 252 143 140 145 139 151 174 161 145 146 146 164 181 151 138 127 115 117 118 120 120 118 117 114 115 118 117 116 114 112 110 108 105 100 95 94 93 90 82 76 78 82 86 90 90 88 82 70 52 32 19 11 5 2 357 352 357 1 3
177 180 168 151 162 183 158 140 149 147 159 202 157 133 135 148 151 123 124 164 33 21 255 243 171 184 269 252 159 160 164 156 158 177 170 155 160 159 166 182 163 145 131 117 122 122 122 121 118 117 116 115 116 115 115 113 110 109 106 103 97 90 89 88 84 79 75 68 62 66 71 75 75 64 51 35 23 17 9 2 0 1 360 1 2 5
298 159 157 152 168 170 146 142 157 160 153 141 127 98 79 93 83 71 88 96 82 262 250 210 159 177 271 242 181 170 163 160 158 175 176 161 168 169 163 161 150 146 134 124 128 126 120 117 117 118 117 115 115 115 114 110 107 106 102 100 95 88 84 78 74 75 76 70 63 59 60 61 54 46 38 31 30 24 18 15 15 16 9 5 6 8
345 103 169 171 158 147 131 143 172 169 149 133 130 116 100 69 50 42 4 54 174 244 266 178 150 160 235 243 192 158 151 161 168 178 177 172 174 169 149 135 133 169 136 125 132 131 122 119 119 120 117 117 117 115 111 109 107 105 103 102 96 89 85 82 81 82 81 78 75 72 69 65 58 53 48 45 44 36 31 27 21 19 10 3 4 4
279 171 260 247 159 152 136 141 172 174 164 151 131 131 135 135 123 152 253 190 210 239 282 184 151 161 238 237 192 167 160 170 179 179 174 173 169 152 146 148 146 175 144 128 139 140 130 130 126 123 122 121 119 116 115 114 112 110 108 105 99 93 90 89 89 87 85 81 77 76 73 71 67 61 55 51 47 40 33 26 19 20 15 8 6 3
232 307 288 251 172 171 154 152 171 178 179 174 151 150 158 153 162 194 205 217 240 249 299 210 162 259 263 269 249 194 175 174 175 173 168 167 160 147 151 150 144 169 150 129 143 145 133 132 127 126 126 121 118 118 120 119 116 114 109 105 99 94 89 90 89 85 82 79 77 76 72 69 62 55 51 47 43 36 28 22 17 17 14 9 6 360
177 248 231 177 207 198 170 164 157 148 167 182 151 135 158 168 167 188 194 191 220 241 330 287 194 228 193 303 301 238 163 141 135 139 144 146 142 135 141 141 141 170 149 129 134 133 126 127 125 127 125 119 119 119 118 117 114 110 104 100 97 91 87 86 85 83 80 77 74 71 66 62 56 51 50 47 43 38 31 26 19 14 9 5 2 354
166 234 247 180 196 186 167 168 134 129 166 192 118 121 176 186 146 131 178 168 157 148 346 226 214 225 197 280 303 129 116 108 111 116 118 110 100 96 92 131 142 157 139 127 127 123 124 124 124 129 125 119 119 117 113 112 109 104 97 93 92 90 88 87 85 82 78 74 71 66 62 58 52 49 46 43 41 37 33 30 26 23 15 7 1 353
149 253 279 172 189 197 167 170 165 155 170 165 143 171 181 149 117 113 180 107 99 146 232 242 229 298 211 299 84 119 117 121 123 121 120 115 115 115 97 101 149 144 131 130 130 125 119 120 124 128 120 116 115 112 109 108 104 99 94 92 93 92 90 87 84 79 73 69 67 62 58 53 47 46 43 40 36 31 28 27 27 27 23 17 10 2
142 206 268 157 184 227 184 166 186 182 154 150 191 190 129 93 96 109 139 21 68 176 242 312 176 174 147 267 147 128 124 129 130 130 132 131 140 143 130 114 114 111 115 125 122 117 117 121 121 117 112 112 112 110 110 109 103 99 96 96 96 92 88 84 79 74 67 63 63 59 54 50 46 44 42 38 35 31 29 29 27 25 24 23 17 10
137 146 267 194 179 212 187 152 187 209 181 162 176 172 128 134 191 121 138 164 133 178 274 293 216 211 183 207 168 137 131 136 139 144 149 145 148 148 134 129 121 104 104 102 99 101 113 117 113 112 110 109 110 110 111 109 105 103 101 98 96 91 87 82 75 70 65 63 63 59 53 49 45 44 44 43 41 38 36 32 28 24 23 21 16 10
133 122 257 240 186 174 163 167 185 206 213 117 128 161 168 167 181 159 144 159 146 159 267 273 232 229 196 182 169 152 144 148 152 153 153 149 144 141 137 137 132 127 129 119 108 108 114 113 111 110 107 106 108 110 110 110 108 106 104 101 98 93 87 80 73 68 67 65 62 57 52 49 49 50 50 49 47 44 42 37 32 29 25 20 15 11
99 137 230 268 222 169 180 208 189 179 174 131 143 176 190 166 127 136 144 118 128 146 191 208 250 253 219 164 165 165 158 159 163 158 155 154 146 143 145 142 136 135 136 126 122 127 126 117 108 105 105 106 108 107 108 110 109 108 107 103 99 93 86 80 73 68 66 63 61 58 56 56 57 58 56 54 53 51 48 43 40 37 31 26 20 14
111 177 192 216 210 185 186 174 148 157 161 156 166 185 184 161 114 134 204 235 109 137 169 180 237 265 267 201 170 171 168 167 164 157 154 152 145 143 145 144 141 137 133 128 128 132 126 113 104 103 106 106 105 105 107 108 108 108 106 103 99 93 87 82 77 70 65 66 66 63 62 62 63 63 61 59 56 53 51 48 45 43 40 37 32 26
142 134 133 188 214 206 216 156 143 163 162 155 187 191 158 142 136 158 200 209 113 112 142 130 239 273 276 262 175 164 160 158 155 149 144 142 142 141 141 141 136 129 128 130 129 123 113 106 105 106 105 103 103 104 106 106 106 106 104 103 99 94 90 87 81 74 73 75 73 69 68 66 64 63 61 59 56 54 52 49 47 44 42 41 38 34
161 127 130 242 285 305 308 344 68 151 147 156 206 187 154 170 171 162 179 166 133 152 148 106 249 265 284 303 139 141 138 136 139 140 136 136 139 139 139 139 131 126 128 126 120 113 108 107 109 108 105 103 102 104 106 106 106 105 105 104 101 98 95 90 85 83 83 82 77 72 70 67 64 63 60 58 55 53 51 49 46 43 41 39 37 35
197 175 125 120 61 37 69 105 59 179 169 181 199 187 188 182 140 108 124 132 159 192 165 148 218 257 295 51 121 130 132 131 133 137 138 137 139 140 138 134 131 129 127 123 119 115 113 113 113 112 110 107 106 107 108 108 108 107 106 106 105 102 98 93 90 89 87 84 78 73 69 67 65 63 60 58 54 52 50 48 46 43 40 38 35 34
185 184 133 131 149 149 161 179 192 190 180 200 189 186 200 189 157 139 122 139 200 204 156 160 212 239 186 134 136 141 139 134 136 140 141 140 140 140 136 131 130 128 125 127 128 124 119 117 117 117 114 112 112 113 112 111 110 109 109 109 108 105 100 97 95 91 88 85 80 75 71 68 67 64 62 59 56 54 52 49 47 44 42 40 38 36
127 166 154 149 168 182 182 195 209 169 157 199 192 185 198 200 180 147 121 170 193 165 173 213 181 151 163 159 151 155 149 142 147 148 147 146 142 137 132 129 128 125 127 132 132 126 122 119 120 120 117 116 117 117 115 114 113 113 112 111 110 109 106 103 99 94 90 87 84 81 75 71 69 68 65 62 59 57 54 52 49 47 44 43 41 40
107 174 182 160 188 211 180 169 202 161 176 201 192 188 199 199 180 162 180 202 159 137 213 240 169 160 178 173 162 163 157 153 157 157 152 148 141 134 130 130 129 128 130 132 128 125 125 124 123 120 118 118 118 116 115 114 113 114 113 113 114 113 111 109 105 99 92 89 89 87 82 77 73 71 67 64 61 58 55 54 51 49 47 45 45 43
122 181 199 165 197 226 180 172 196 165 169 212 196 195 197 188 176 183 202 198 160 167 216 198 177 184 188 178 172 168 162 158 156 152 145 139 135 134 133 135 135 134 134 132 128 127 128 127 124 120 120 121 118 115 114 112 113 114 113 113 114 114 114 114 108 101 96 92 90 89 88 83 77 72 67 63 60 56 55 54 53 52 50 48 48 46
128 178 202 158 172 215 201 189 167 135 121 28 239 216 200 187 184 190 199 184 165 191 205 171 179 198 191 175 169 152 143 139 133 134 138 140 141 139 139 141 140 137 136 133 130 130 129 126 122 120 121 121 118 115 114 112 113 113 111 112 114 113 116 118 110 102 99 95 92 92 89 83 78 74 69 65 60 57 55 56 56 55 53 52 51 48
139 177 210 138 142 227 312 46 59 64 84 77 357 334 168 178 187 186 179 158 141 113 122 151 164 198 115 141 135 127 131 130 133 140 143 146 147 143 142 144 140 137 135 133 133 133 129 123 121 120 120 119 117 116 115 114 114 113 112 112 114 114 117 117 110 103 100 96 93 91 85 81 79 76 72 68 63 59 59 59 59 58 56 55 52 50
132 145 58 101 134 253 351 48 44 20 43 73 355 355 86 173 187 179 177 177 157 134 121 129 153 188 155 136 130 135 140 138 143 147 147 151 152 148 146 144 142 141 138 137 138 135 130 128 125 124 122 120 119 118 118 118 115 112 112 113 115 116 117 115 108 103 98 94 92 88 83 83 82 79 76 70 65 63 63 63 62 59 57 55 52 50
135 137 113 116 139 286 9 60 50 21 43 129 273 302 287 243 191 166 203 198 158 140 137 155 187 174 152 143 142 148 151 153 155 154 152 152 151 149 146 143 145 145 140 139 140 136 134 133 130 128 125 121 120 120 120 120 116 113 114 116 117 118 115 110 105 102 97 92 90 87 85 85 84 81 77 70 67 68 68 65 62 59 56 54 52 51
130 131 147 147 125 94 21 65 55 36 125 235 278 243 234 261 222 167 163 149 139 149 146 138 140 145 151 157 158 159 159 158 153 150 149 148 146 145 145 145 145 140 135 136 137 132 129 125 123 124 122 121 121 122 121 119 116 115 117 119 118 116 112 108 104 100 95 91 89 87 86 86 85 81 76 72 71 71 70 67 64 61 57 55 53 51
122 118 132 95 100 118 63 63 63 315 232 258 303 274 220 230 203 123 79 51 12 1 127 116 129 145 152 151 148 145 140 136 134 138 144 145 144 143 143 144 140 134 136 138 136 131 128 125 124 123 122 123 125 125 124 121 120 120 119 118 116 112 109 107 103 98 94 90 87 86 86 85 84 82 78 74 73 72 71 69 65 62 59 56 54 52
129 127 119 56 87 120 71 76 137 251 272 304 313 291 187 181 166 120 78 19 348 328 143 129 131 138 128 119 122 119 115 116 116 126 143 149 150 150 151 151 145 141 143 143 139 136 135 134 132 129 128 128 128 127 126 125 125 122 119 117 114 111 109 106 100 95 91 88 85 85 85 85 84 82 79 76 74 72 70 68 66 63 60 58 57 55
138 136 122 65 39 118 103 117 229 319 322 322 275 229 183 175 175 152 136 271 326 300 157 134 128 129 124 120 122 119 115 113 106 105 148 151 150 147 144 143 140 140 140 140 138 137 136 135 132 131 130 129 129 132 132 130 128 124 120 117 114 111 108 103 97 93 90 87 86 85 85 86 85 82 79 76 73 71 70 69 67 64 61 60 58 56
157 160 148 122 56 95 100 77 5 6 286 251 224 209 187 177 184 152 122 124 290 259 169 141 134 134 131 127 128 126 122 122 135 170 176 150 136 125 121 126 133 136 137 136 135 133 132 133 134 134 134 133 135 140 140 135 131 126 121 118 116 113 108 102 97 94 91 88 87 87 86 85 84 82 79 77 74 73 72 70 68 66 64 62 60 57
55 42 114 109 95 100 104 113 182 193 242 249 225 201 176 179 186 130 71 292 227 195 165 146 140 142 142 140 141 141 141 150 170 183 168 146 136 130 128 127 130 135 137 138 137 135 135 137 137 137 139 141 145 147 143 138 133 128 124 122 120 116 110 106 103 98 95 92 90 89 86 84 83 81 79 77 75 74 73 72 71 69 67 66 62 59
58 30 72 104 119 123 114 124 239 230 257 268 239 188 161 166 141 103 74 253 192 170 167 156 150 150 150 149 151 156 163 175 176 166 150 140 136 135 136 134 134 135 136 138 139 137 138 141 141 142 145 149 150 148 144 140 135 131 128 127 125 120 115 113 110 105 101 97 94 90 87 84 83 81 80 78 76 74 73 71 71 70 68 66 63 60
64 38 66 115 128 134 142 177 254 256 249 254 240 174 150 119 85 119 205 228 171 162 168 161 154 154 156 156 160 165 161 123 124 132 136 134 131 132 135 136 137 140 140 141 141 140 142 145 147 148 151 151 150 149 147 143 138 135 134 132 128 124 121 120 117 113 107 101 97 93 89 85 84 82 80 79 76 74 72 70 68 68 66 64 61 59
128 88 65 117 132 133 152 180 260 276 244 197 146 151 145 126 140 199 228 207 159 158 162 158 155 156 157 153 145 130 114 108 115 128 134 132 130 129 131 130 131 135 139 141 142 143 144 146 148 148 149 150 150 151 150 146 141 139 138 135 131 129 128 126 123 119 113 106 101 96 91 88 86 83 81 79 77 74 71 68 66 65 64 62 59 57
158 142 135 156 149 115 94 126 198 247 227 154 121 130 171 169 195 218 207 135 151 153 151 153 155 155 152 140 123 123 123 120 125 133 133 132 132 133 135 136 135 137 141 142 145 147 147 146 147 148 149 150 152 153 153 148 144 142 140 137 135 135 134 132 129 126 121 114 106 100 95 91 86 83 81 78 76 74 70 67 65 63 61 59 56 54
152 143 167 201 180 137 136 184 207 224 243 214 128 173 214 206 200 191 143 130 144 148 147 151 154 150 143 134 130 131 128 127 133 137 134 135 136 135 138 140 140 142 145 146 148 150 148 147 148 148 149 151 154 155 155 150 146 145 143 140 140 140 139 137 135 132 127 122 115 107 101 94 88 84 80 77 75 74 71 67 64 61 59 56 54 51
192 166 171 182 168 152 175 217 235 245 269 286 260 237 252 257 170 155 140 139 148 153 154 153 148 142 137 134 133 132 131 134 138 139 137 138 138 138 140 142 142 144 146 147 149 151 150 149 148 147 149 153 155 157 155 149 147 147 147 147 148 148 146 144 140 135 131 127 122 115 107 99 93 87 83 79 76 73 70 66 63 61 58 55 53 50
257 150 121 114 140 175 206 261 295 330 323 313 308 286 274 252 126 120 125 137 146 146 147 147 143 141 140 138 134 133 137 139 139 140 141 140 139 140 141 141 142 144 145 146 149 151 150 149 149 148 149 153 156 157 155 150 147 149 151 154 155 153 152 150 146 141 137 132 128 123 113 104 97 90 85 81 76 73 70 66 63 60 57 54 51 49
264 140 89 82 136 170 179 339 335 333 314 314 331 345 8 40 63 99 124 136 133 123 124 128 132 136 139 137 134 135 140 140 138 139 141 139 140 143 142 142 145 146 147 149 150 150 148 147 148 149 151 154 158 158 155 152 151 152 154 157 157 156 156 155 152 150 146 141 136 130 120 109 101 93 87 83 79 76 72 69 65 61 57 53 50 49
211 119 87 75 113 149 249 293 284 259 325 344 348 348 60 74 78 91 106 111 109 110 117 125 132 137 139 138 136 136 140 143 141 141 142 142 144 144 144 145 146 146 146 148 149 148 148 148 150 152 154 157 160 160 158 157 157 158 158 158 158 158 157 157 156 155 152 149 145 138 129 119 108 98 91 86 82 79 76 71 66 61 56 52 50 48
64 83 119 119 86 60 298 275 253 194 49 14 3 355 13 116 112 107 106 110 113 116 122 130 135 138 139 140 139 138 140 146 145 142 142 143 144 145 146 146 145 144 145 147 149 149 150 151 153 154 156 159 161 161 162 163 164 164 163 161 160 159 158 159 160 159 158 156 152 146 139 130 119 108 97 90 86 82 80 76 70 64 59 56 54 51
54 100 145 124 87 322 240 214 182 153 135 282 282 271 118 132 125 121 123 127 129 132 134 133 132 132 134 140 143 140 139 145 147 143 142 144 146 148 148 147 145 144 145 147 149 151 152 153 155 156 158 160 161 163 166 168 169 171 169 166 165 163 162 163 165 165 165 162 157 151 142 133 127 121 108 99 92 87 83 80 74 68 63 59 57 55
144 172 172 141 137 241 228 178 150 130 119 185 196 155 137 134 128 129 136 139 139 142 142 137 136 136 136 141 146 144 139 142 146 144 140 141 143 143 144 145 144 143 146 148 150 151 153 155 156 158 159 161 163 167 170 172 173 176 176 175 174 172 170 170 172 172 172 170 164 158 149 138 132 128 120 111 102 93 86 82 77 72 66 61 58 56